Weather History for KFLP - January, 2007

Change the Weather History Date:

Tuesday, January 2, 2007

  Actual Average Record
Temperature  
Mean Temperature 36 °F -  
Max Temperature 48 °F 45 °F 73 °F (2004)
Min Temperature 23 °F 26 °F 6 °F (2001)
Degree Days  
Heating Degree Days 30    
Moisture  
Dew Point 26 °F    
Average Humidity 75    
Maximum Humidity 100    
Minimum Humidity 43    
Precipitation  
Precipitation 0.00 in - - ()
Sea Level Pressure  
Sea Level Pressure 30.38 in    
Wind  
Wind Speed 0 mph (ESE)    
Max Wind Speed 5 mph    
Max Gust Speed -    
Visibility 9 miles    
Events      
Averages and records for this station are not official NWS values.
T = Trace of Precipitation, MM = Missing Value Source: NWS Daily Summary

Daily Weather History Graph

Daily Weather History Graph

Search for Another Location

Airport or City:

Trip Planner

Search our weather history database for the weather conditions in past years. The results will help you decide how hot, cold, wet, or windy it might be!

Date:

Astronomy

Jan. 02, 2007 Rise Set
Actual Time 7:21 AM CST 5:06 PM CST
Civil Twilight 6:53 AM CST 5:35 PM CST
Nautical Twilight 6:21 AM CST 6:07 PM CST
Astronomical Twilight 5:49 AM CST 6:38 PM CST
Moon 4:07 PM CST (1/2) 6:50 AM CST (1/2)
Length of Visible Light 10h 42m
Length of Day
9h 45m
Waxing Gibbous, 99% of the Moon is Illuminated
Jan 2
Waxing Gibbous
Jan 3
Full
Jan 11
Last Quarter
Jan 18
New
Jan 25
First Quarter

Hourly Weather History & Observations

Time (CST) Temp. Windchill Dew Point Humidity Pressure Visibility Wind Dir Wind Speed Gust Speed Precip Events Conditions
12:15 AM 28.4 °F - 24.8 °F 86% 30.37 in 10.0 mi Calm Calm - N/A   Clear
12:35 AM 30.2 °F - 24.8 °F 80% 30.37 in 10.0 mi Calm Calm - N/A   Clear
12:55 AM 30.2 °F - 24.8 °F 80% 30.38 in 10.0 mi Calm Calm - N/A   Clear
1:15 AM 30.2 °F - 24.8 °F 80% 30.38 in 10.0 mi Calm Calm - N/A   Clear
1:35 AM 28.4 °F - 24.8 °F 86% 30.39 in 10.0 mi Calm Calm - N/A   Clear
1:55 AM 28.4 °F - 24.8 °F 86% 30.40 in 8.0 mi Calm Calm - N/A   Clear
2:15 AM 28.4 °F - 24.8 °F 86% 30.40 in 10.0 mi Calm Calm - N/A   Clear
2:35 AM 28.4 °F - 24.8 °F 86% 30.40 in 10.0 mi Calm Calm - N/A   Clear
2:55 AM 26.6 °F - 24.8 °F 93% 30.40 in 10.0 mi Calm Calm - N/A   Clear
3:15 AM 26.6 °F - 23.0 °F 86% 30.40 in 10.0 mi Calm Calm - N/A   Clear
3:35 AM 26.6 °F - 24.8 °F 93% 30.40 in 10.0 mi Calm Calm - N/A   Clear
3:55 AM 26.6 °F - 23.0 °F 86% 30.39 in 10.0 mi Calm Calm - N/A   Clear
4:15 AM 26.6 °F - 24.8 °F 93% 30.39 in 10.0 mi Calm Calm - N/A   Clear
4:35 AM 24.8 °F - 23.0 °F 93% 30.38 in 10.0 mi Calm Calm - N/A   Clear
4:55 AM 24.8 °F - 23.0 °F 93% 30.38 in 10.0 mi Calm Calm - N/A   Clear
5:15 AM 23.0 °F - 21.2 °F 93% 30.38 in 10.0 mi Calm Calm - N/A   Clear
5:35 AM 23.0 °F - 21.2 °F 93% 30.38 in 10.0 mi Calm Calm - N/A   Clear
5:55 AM 24.8 °F - 23.0 °F 93% 30.39 in 10.0 mi Calm Calm - N/A   Clear
6:15 AM 24.8 °F - 23.0 °F 93% 30.40 in 10.0 mi Calm Calm - N/A   Clear
6:35 AM 24.8 °F - 23.0 °F 93% 30.40 in 10.0 mi Calm Calm - N/A   Clear
6:55 AM 24.8 °F - 24.8 °F 100% 30.40 in 10.0 mi Calm Calm - N/A   Clear
7:15 AM 23.0 °F - 21.2 °F 93% 30.41 in 10.0 mi Calm Calm - N/A   Clear
7:35 AM 23.0 °F - 19.4 °F 86% 30.41 in 10.0 mi Calm Calm - N/A   Mostly Cloudy
7:55 AM 24.8 °F - 21.2 °F 86% 30.41 in 10.0 mi Calm Calm - N/A   Overcast
8:15 AM 24.8 °F - 24.8 °F 100% 30.42 in 0.2 mi Calm Calm - N/A   Overcast
8:35 AM 26.6 °F - 24.8 °F 93% 30.42 in 0.2 mi Calm Calm - N/A   Overcast
8:55 AM 28.4 °F - 28.4 °F 100% 30.42 in 0.2 mi Calm Calm - N/A   Overcast
9:15 AM 28.4 °F - 28.4 °F 100% 30.44 in 0.2 mi Calm Calm - N/A   Overcast
9:35 AM 28.4 °F - 28.4 °F 100% 30.44 in 0.2 mi Calm Calm - N/A   Overcast
9:55 AM 30.2 °F - 30.2 °F 100% 30.45 in 7.0 mi Calm Calm - N/A   Mostly Cloudy
10:15 AM 32.0 °F - 32.0 °F 100% 30.44 in 10.0 mi Calm Calm - N/A   Scattered Clouds
10:35 AM 33.8 °F - 30.2 °F 87% 30.45 in 10.0 mi Calm Calm - N/A   Clear
10:55 AM 35.6 °F - 28.4 °F 75% 30.45 in 10.0 mi Calm Calm - N/A   Clear
11:15 AM 37.4 °F - 28.4 °F 70% 30.44 in 10.0 mi Calm Calm - N/A   Clear
11:35 AM 39.2 °F - 30.2 °F 70% 30.43 in 10.0 mi Calm Calm - N/A   Clear
11:55 AM 41.0 °F 39.0 °F 28.4 °F 61% 30.42 in 10.0 mi South 3.5 mph - N/A   Clear
12:15 PM 42.8 °F 40.1 °F 28.4 °F 57% 30.40 in 10.0 mi South 4.6 mph - N/A   Clear
12:35 PM 42.8 °F - 28.4 °F 57% 30.39 in 10.0 mi Calm Calm - N/A   Clear
12:55 PM 44.6 °F - 28.4 °F 53% 30.37 in 10.0 mi Calm Calm - N/A   Clear
1:15 PM 44.6 °F 42.2 °F 28.4 °F 53% 30.36 in 10.0 mi ESE 4.6 mph - N/A   Clear
1:35 PM 46.4 °F - 30.2 °F 53% 30.35 in 10.0 mi Calm Calm - N/A   Clear
1:55 PM 46.4 °F - 28.4 °F 50% 30.35 in 10.0 mi Calm Calm - N/A   Clear
2:15 PM 46.4 °F 44.3 °F 28.4 °F 50% 30.34 in 10.0 mi ESE 4.6 mph - N/A   Clear
2:35 PM 48.2 °F - 28.4 °F 46% 30.33 in 10.0 mi Calm Calm - N/A   Clear
2:55 PM 48.2 °F - 28.4 °F 46% 30.33 in 10.0 mi Calm Calm - N/A   Clear
3:15 PM 48.2 °F - 28.4 °F 46% 30.33 in 10.0 mi Calm Calm - N/A   Clear
3:35 PM 48.2 °F - 28.4 °F 46% 30.33 in 10.0 mi ESE 3.5 mph - N/A   Clear
3:55 PM 48.2 °F - 28.4 °F 46% 30.32 in 10.0 mi Calm Calm - N/A   Clear
4:15 PM 48.2 °F - 26.6 °F 43% 30.31 in 10.0 mi Calm Calm - N/A   Clear
4:35 PM 48.2 °F - 28.4 °F 46% 30.31 in 10.0 mi Calm Calm - N/A   Clear
4:55 PM 46.4 °F - 28.4 °F 50% 30.30 in 10.0 mi Calm Calm - N/A   Clear
5:15 PM 46.4 °F - 26.6 °F 46% 30.31 in 10.0 mi Calm Calm - N/A   Clear
5:35 PM 44.6 °F 42.2 °F 26.6 °F 49% 30.31 in 10.0 mi NE 4.6 mph - N/A   Clear
5:55 PM 44.6 °F - 26.6 °F 49% 30.31 in 10.0 mi Calm Calm - N/A   Clear
6:15 PM 42.8 °F 41.1 °F 28.4 °F 57% 30.31 in 10.0 mi ENE 3.5 mph - N/A   Clear
6:35 PM 39.2 °F 37.0 °F 28.4 °F 65% 30.31 in 10.0 mi NNE 3.5 mph - N/A   Clear
6:55 PM 37.4 °F 34.9 °F 28.4 °F 70% 30.31 in 9.0 mi NNE 3.5 mph - N/A   Clear
7:15 PM 37.4 °F - 28.4 °F 70% 30.30 in 10.0 mi Calm Calm - N/A   Clear
7:35 PM 35.6 °F - 26.6 °F 70% 30.30 in 10.0 mi Calm Calm - N/A   Clear
7:55 PM 33.8 °F - 28.4 °F 81% 30.30 in 10.0 mi Calm Calm - N/A   Clear
8:15 PM 35.6 °F - 28.4 °F 75% 30.30 in 10.0 mi Calm Calm - N/A   Clear
8:35 PM 33.8 °F - 26.6 °F 75% 30.29 in 10.0 mi Calm Calm - N/A   Clear
8:55 PM 33.8 °F - 26.6 °F 75% 30.29 in 10.0 mi Calm Calm - N/A   Clear
9:15 PM 33.8 °F - 28.4 °F 81% 30.29 in 10.0 mi Calm Calm - N/A   Clear
9:35 PM 32.0 °F - 26.6 °F 80% 30.29 in 10.0 mi Calm Calm - N/A   Clear
9:55 PM 30.2 °F - 26.6 °F 86% 30.29 in 10.0 mi Calm Calm - N/A   Clear
10:15 PM 32.0 °F - 28.4 °F 87% 30.29 in 10.0 mi Calm Calm - N/A   Clear
10:35 PM 30.2 °F - 28.4 °F 93% 30.29 in 10.0 mi Calm Calm - N/A   Clear
10:55 PM 30.2 °F - 28.4 °F 93% 30.28 in 10.0 mi Calm Calm - N/A   Clear
11:15 PM 30.2 °F - 26.6 °F 86% 30.28 in 10.0 mi Calm Calm - N/A   Clear
11:35 PM 28.4 °F - 26.6 °F 93% 30.27 in 10.0 mi Calm Calm - N/A   Clear
11:55 PM 28.4 °F - 26.6 °F 93% 30.27 in 10.0 mi Calm Calm - N/A   Clear